Chicago Midway, IL

9:21 AM CDT on May 29, 2017 (GMT -0500)
Chicago-Midway

Weather History for KMDW - January, 2015

Change the Weather History Date:

Monday, January 5, 2015

  Actual Average Record
Temperature  
Mean Temperature 5 °F 25 °F  
Max Temperature 10 °F 32 °F 56 °F (1998)
Min Temperature -1 °F 19 °F -15 °F (1999)
Degree Days  
Heating Degree Days 60 40  
Month to date heating degree days 212 199  
Since 1 July heating degree days 2403 2450  
Cooling Degree Days 0 0  
Month to date cooling degree days 0 0  
Year to date cooling degree days 0 0  
Moisture  
Dew Point -3 °F    
Average Humidity 67    
Maximum Humidity 84    
Minimum Humidity 45    
Precipitation  
Precipitation 0.11 in 0.08 in 0.80 in (1929)
Month to date precipitation 0.76 0.39  
Year to date precipitation 0.76 0.39  
Snow  
Snow 0.00 in - - ()
Snow Depth 3.00 in    
Sea Level Pressure  
Sea Level Pressure 30.56 in    
Wind  
Wind Speed 10 mph (WSW)    
Max Wind Speed 17 mph    
Max Gust Speed 22 mph    
Visibility 6 miles    
Events Snow    
T = Trace of Precipitation, MM = Missing Value Source: NWS Daily Summary

Daily Weather History Graph

Daily Weather History Graph

Search for Another Location

Airport or City:

Trip Planner

Search our weather history database for the weather conditions in past years. The results will help you decide how hot, cold, wet, or windy it might be!

Date:

Astronomy

Jan. 05, 2015 Rise Set
Actual Time 7:18 AM CST 4:34 PM CST
Civil Twilight 6:47 AM CST 5:05 PM CST
Nautical Twilight 6:12 AM CST 5:40 PM CST
Astronomical Twilight 5:38 AM CST 6:14 PM CST
Moon 5:29 PM CST (1/5) 7:14 AM CST (1/5)
Length of Visible Light 10h 18m
Length of Day
9h 15m
Full, 100% of the Moon is Illuminated
Jan 5
Full
Jan 13
Last Quarter
Jan 20
New
Jan 26
First Quarter
Feb 3
Full

Hourly Weather History & Observations

Time (CST) Temp. Windchill Dew Point Humidity Pressure Visibility Wind Dir Wind Speed Gust Speed Precip Events Conditions
12:53 AM 3.9 °F -13.0 °F -7.1 °F 60% 30.61 in 10.0 mi West 12.7 mph 21.9 mph N/A   Scattered Clouds
1:53 AM 1.9 °F -16.9 °F -8.0 °F 63% 30.63 in 10.0 mi WNW 15.0 mph - N/A   Partly Cloudy
2:53 AM 1.0 °F -16.6 °F -9.0 °F 63% 30.65 in 10.0 mi West 12.7 mph - N/A   Clear
3:53 AM -0.0 °F -18.0 °F -9.0 °F 66% 30.66 in 10.0 mi WNW 12.7 mph - 0.00 in   Clear
4:53 AM -0.0 °F -18.0 °F -9.9 °F 63% 30.67 in 10.0 mi WNW 12.7 mph - N/A   Clear
5:53 AM -0.0 °F -17.1 °F -9.9 °F 63% 30.69 in 10.0 mi West 11.5 mph - N/A   Clear
6:53 AM -0.9 °F -16.4 °F -9.9 °F 66% 30.71 in 10.0 mi West 9.2 mph - N/A   Partly Cloudy
7:53 AM -0.0 °F -18.7 °F -8.0 °F 69% 30.72 in 10.0 mi West 13.8 mph - N/A   Partly Cloudy
8:53 AM 1.0 °F -14.9 °F -7.1 °F 69% 30.73 in 10.0 mi West 10.4 mph - N/A   Mostly Cloudy
9:53 AM 1.9 °F -15.5 °F -7.1 °F 66% 30.72 in 10.0 mi West 12.7 mph - N/A   Mostly Cloudy
10:53 AM 3.0 °F -16.1 °F -8.0 °F 60% 30.69 in 10.0 mi West 16.1 mph - N/A   Mostly Cloudy
11:53 AM 3.9 °F -13.0 °F -6.0 °F 64% 30.66 in 10.0 mi WSW 12.7 mph 21.9 mph N/A   Mostly Cloudy
12:53 PM 5.0 °F -14.2 °F -6.0 °F 61% 30.65 in 10.0 mi WSW 17.3 mph 21.9 mph N/A   Mostly Cloudy
1:53 PM 5.0 °F -12.3 °F -6.0 °F 61% 30.64 in 10.0 mi WSW 13.8 mph - N/A   Overcast
2:53 PM 5.0 °F -8.1 °F -6.0 °F 61% 30.63 in 10.0 mi WSW 8.1 mph - N/A   Overcast
3:53 PM 6.1 °F -7.8 °F -6.0 °F 58% 30.59 in 10.0 mi SW 9.2 mph - N/A   Overcast
4:53 PM 6.1 °F -9.5 °F -4.0 °F 63% 30.58 in 10.0 mi SW 11.5 mph - N/A   Overcast
5:53 PM 7.0 °F -4.5 °F -2.9 °F 64% 30.52 in 10.0 mi SSW 6.9 mph - N/A   Overcast
6:53 PM 8.1 °F -6.2 °F -2.0 °F 64% 30.47 in 10.0 mi SSW 10.4 mph - N/A   Overcast
7:53 PM 9.0 °F -3.2 °F -0.9 °F 64% 30.47 in 9.0 mi SW 8.1 mph - 0.00 in Snow Light Snow
8:00 PM 8.1 °F -4.3 °F -0.9 °F 67% 30.39 in 2.0 mi SSW 8.1 mph - 0.00 in Snow Light Snow
8:04 PM 8.1 °F -3.2 °F -0.0 °F 70% 30.39 in 1.2 mi Variable 6.9 mph - 0.00 in Snow Light Snow
8:13 PM 8.1 °F -2.0 °F -0.0 °F 70% 30.41 in 1.0 mi WSW 5.8 mph - 0.00 in Snow Light Snow
8:20 PM 8.1 °F -5.3 °F -0.0 °F 70% 30.42 in 0.5 mi West 9.2 mph - 0.00 in Snow Snow
8:25 PM 8.1 °F -4.3 °F 1.0 °F 73% 30.41 in 0.5 mi WSW 8.1 mph - 0.00 in Snow Snow
8:36 PM 8.1 °F -3.2 °F 1.0 °F 73% 30.41 in 0.5 mi WSW 6.9 mph - 0.01 in Snow Snow
8:53 PM 8.1 °F -2.0 °F 1.9 °F 76% 30.48 in 0.5 mi West 5.8 mph - 0.02 in Snow Snow
9:53 PM 8.1 °F 1.4 °F 3.9 °F 83% 30.48 in 0.8 mi SW 3.5 mph - 0.04 in Snow Light Snow
10:21 PM 9.0 °F 2.4 °F 5.0 °F 84% 30.38 in 0.8 mi SSW 3.5 mph - 0.01 in Snow Light Snow
10:53 PM 9.0 °F - 3.9 °F 80% 30.48 in 0.8 mi Calm Calm - 0.02 in Snow Light Snow
11:10 PM 9.0 °F - 5.0 °F 84% 30.38 in 0.8 mi Calm Calm - 0.01 in Snow Light Snow
11:20 PM 9.0 °F - 5.0 °F 84% 30.37 in 1.0 mi Calm Calm - 0.01 in Snow Light Snow
11:53 PM 9.0 °F - 3.9 °F 80% 30.43 in 0.8 mi Calm Calm - 0.03 in Snow Light Snow